Regional Weather Roundup
Issued by NWS

Home | Current Version | Previous Version | Text Only | Print | Product List | Glossary On
Versions: 1 2 3 4 5 6 7 8 9 10 11 12 13 14 15 16 17 18 19 20 21 22 23 24 25 26 27 28
000
ASUS45 KTFX 170810
RWRMT
MONTANA REGIONAL WEATHER ROUNDUP
NATIONAL WEATHER SERVICE GREAT FALLS MT
200 AM MDT TUE OCT 17 2017

NOTE: "FAIR" INDICATES FEW OR NO CLOUDS BELOW 12000 FEET WITH NO
SIGNIFICANT WEATHER AND/OR OBSTRUCTIONS TO VISIBILITY.

MTZ001>007-043-170900-
WEST OF THE DIVIDE

CITY           SKY/WX    TMP DP  RH WIND       PRES   REMARKS
KALISPELL      MOCLDY    39  31  72 SW6       30.05F
MISSOULA       CLEAR     34  28  79 E3        30.15S
BUTTE          CLEAR     31  24  75 SE5       30.23S
MULLAN PASS    CLEAR     44  21  40 SW8       30.16F
ANACONDA         N/A     39  23  52 SW6       30.20S
DEER LODGE       N/A     45  25  45 S5        30.19F
EUREKA           N/A     54  27  35 MISG      30.01F
HAMILTON         N/A     48  27  43 S17       30.17S
LIBBY            N/A     39  34  81 CALM      30.04F
PLAINS           N/A     32  25  76 MISG      30.09F
THOMPSON FALLS   N/A     32  29  89 CALM      30.14F
$$

MTZ008-052>055-170900-
SOUTHWEST MONTANA

CITY           SKY/WX    TMP DP  RH WIND       PRES   REMARKS
BOZEMAN        CLEAR     35  26  69 S8        30.18F WCI  29
DILLON         CLOUDY    39  21  48 SW16      30.24F WCI  30
W YELLOWSTONE  CLOUDY    25  18  74 SW5       30.36S
ENNIS          CLOUDY    41  19  42 S17G25    30.29F
$$

MTZ009-010-012-014-046-048-049-054-170900-
EAST SLOPES AND CENTRAL MONTANA

CITY           SKY/WX    TMP DP  RH WIND       PRES   REMARKS
CUT BANK       CLOUDY    56  22  26 W23G36    29.93F
GREAT FALLS    CLEAR     56  23  27 SW20      29.98S
MALMSTROM AFB  CLEAR     58  23  26 SW30G37   29.97F
HELENA         CLEAR     43  27  53 CALM      30.11F
CHOTEAU          N/A     55  19  24 SW13G21   29.98F
$$

MTZ011-013-016-021-045-047-050-051-170900-
NORTH CENTRAL MONTANA

CITY           SKY/WX    TMP DP  RH WIND       PRES   REMARKS
HAVRE          CLEAR     57  26  30 SW26G37   29.86R
LEWISTOWN      CLEAR     55  22  27 SW15      30.03F
N BAR RANCH      N/A     57  12  17 W10G17    30.03R
CHINOOK          N/A     64  21  19 SW23G33   29.83R
$$

MTZ017>020-022>027-061-062-170900-
NORTHEAST MONTANA

CITY           SKY/WX    TMP DP  RH WIND       PRES   REMARKS
GLASGOW        CLEAR     49  27  42 VRB3      29.87S
JORDAN           N/A     46  28  49 NW7       29.93S
SIDNEY         CLEAR     42  31  64 S12       29.92S
WOLF POINT     CLOUDY    37  29  72 NW3       29.89S
MALTA          CLEAR     57  27  30 W18       29.82S
PLENTYWOOD       N/A     52  28  40 CALM      29.84F
POPLAR           N/A     48  30  49 SW3       29.89S
SCOBEY           N/A     49  24  37 S6        29.84F
$$

MTZ028>42-056>058-170900-
SOUTHCENTRAL AND SOUTHEAST MONTANA

CITY           SKY/WX    TMP DP  RH WIND       PRES   REMARKS
BAKER          CLEAR     46  29  51 W5        30.00F
BILLINGS       CLEAR     49  26  41 SW12      30.07S
LIVINGSTON     CLEAR     56  17  21 SW28G37   30.15F
MILES CITY     CLEAR     44  30  57 SE8       29.99S
BIG TIMBER     CLEAR     54  16  22 W24G32    30.12F
EKALAKA          N/A     55  21  26 SW5       30.02S
FORSYTH          N/A     55  23  28 CALM      30.00S
LAUREL           N/A     55  19  24 SW15      30.08S
$$

REGIONAL REPORTS...DAKOTAS

CITY           SKY/WX    TMP DP  RH WIND       PRES   REMARKS
WILLISTON      CLOUDY    40  32  73 SW7       29.89F
MINOT          CLEAR     48  33  56 S9        29.87F
DICKINSON      CLEAR     43  30  60 S9        29.95F
BEACH            N/A     48  28  46 SW14      29.99F
CROSBY           N/A     45  32  61 SW17      29.83F
TIOGA            N/A     46  30  53 S14       29.88F
WATFORD CITY     N/A     41  32  70 SW10      29.90F
BISMARCK       CLEAR     35  30  82 CALM      29.97F
GRAND FORKS    CLOUDY    39  34  82 SW5       29.90S
FARGO          CLOUDY    39  34  82 SW3       29.93S
BUFFALO SD       N/A     48  26  42 W10       29.97S
RAPID CITY     CLEAR     44  27  51 W8        30.09S
$$

REGIONAL REPORTS...WYOMING/IDAHO/WASHINGTON

CITY           SKY/WX    TMP DP  RH WIND       PRES   REMARKS
GILLETTE       CLOUDY    48  23  37 S6        30.13F
SHERIDAN       CLOUDY    42  24  49 SW5       30.10S
BUFFALO WY     CLOUDY    53  13  20 W12       30.15F
CODY           CLOUDY    57  16  20 SW13G22   30.19F
YELLOWSTONE LA   N/A     23  19  85 CALM      30.40S
IDAHO FALLS    CLOUDY    29  26  89 NW3       30.32S
SALMON         CLEAR     34  27  75 S3        30.29R
BOISE          CLEAR     43  30  60 E6        30.23F
SPOKANE        CLEAR     47  33  58 SE9       30.06F
$$

REGIONAL REPORTS...ALBERTA

CITY           SKY/WX    TMP DP  RH WIND       PRES   REMARKS
EDMONTON       CLEAR     41  34  75 SW6       29.56F
CALGARY        MOCLDY    52  34  50 S3        29.67F
LETHBRIDGE     CLEAR     52  30  43 SW20      29.81F
MEDICINE HAT   CLEAR     57  28  33 SW21G29   29.70S
$$

REGIONAL REPORTS...SASKATCHEWAN

CITY           SKY/WX    TMP DP  RH WIND       PRES   REMARKS
SWIFT CURRENT  PTCLDY    50  27  40 SW14G20   29.71S
REGINA         PTCLDY    46  30  53 SW12      29.71F
SASKATOON      PTCLDY    41  32  70 S6        29.61F
$$




USA.gov is the U.S. government's official web portal to all federal, state and local government web resources and services.